COSMOS 1275 DEB, 17642

Orbit data source: Space-Track

COSMOS 1275 DEB, 17642 is space debris in LEO originally from a launch on Thu, 04 Jun 1981 UTC launched from the Plesetsk Missile And Space Complex (PKMTR). Debris objects in space refer to the collection of defunct objects orbiting the Earth. Examples of debris include non-operational satellites, rocket bodies, and fragments generated from explosions, collisions, or faulty payload assembly.

Loading next visibility...
Identifier
17642, 1981-053LM
Orbit
LEO
Country
Flag of CISCIS
Related business
Manufacturer
Unknown
Mission
Spacecraft
Bus & Motor
Unknown
Mass
Unknown
Launch date (UTC)
1981-06-04 (44 years ago)
Launch vehicle
Unknown
Launch site
Plesetsk Missile And Space Complex (PKMTR)
Object type
Payload
Rocket body
Debris
Shape & HBR
Unknown shape, 0.1 m
Radar Cross Section
Small (<0.1 m²)

Expand to show TLE details & history
Last TLE update: 13 hours ago

TLE from 13 hours ago
0 COSMOS 1275 DEB
1 17642U 81053LM  25286.79821785  .00005450  00000-0  16853-2 0  9996
2 17642  82.8615 317.5702 0034267 156.4422 203.8349 14.40814494101294
Epoch: 2025-10-13T19:09Z
TLE epoch observation values (Epoch: 2025-10-13T19:09:26.022Z)
Latitude
-0.00005°
Longitude
7.61594°
Altitude
781.177 km
Speed
7.452 km/s
True Right ascension
21h 10m 16s
True Declination
0° 00' 00"
Sunlit
Object was in full shadow at epoch
Visualization orbit readout
Latitude
Unknown
Longitude
Unknown
Altitude
Unknown
Speed
Unknown
Apparent Right ascension
Unknown
Apparent Declination
Unknown
Sunlit
N/A
Visualization observer readout
Local Sidereal Time
02:42:10
Azimuth
Unknown
Elevation
Unknown
Doppler factor
Unknown
Orbital elements
Apogee altitude
777.306 km
Perigee altitude
728.434 km
Semi-major axis
7,131.007 km
Eccentricity
0.00343
Inclination
82.8615°
RAAN
317.5702°
Arg. of periapsis
156.4422°
True anomaly
203.67684°
Mean anomaly
203.8349°
Eccentric anomaly
203.75581°
Mean motion
3.60427 °/min
Orbital period
99.88 mins
BSTAR
0.0016853
Loading maneuver chart data...
Computing Atmospheric mass density...

Documentation

Showing up to 5 results
|